Date,TemperatureHighF,TemperatureAvgF,TemperatureLowF,DewpointHighF,DewpointAvgF,DewpointLowF,HumidityHigh,HumidityAvg,HumidityLow,PressureMaxIn,PressureMinIn,WindSpeedMaxMPH,WindSpeedAvgMPH,GustSpeedMaxMPH,PrecipitationSumIn
2014-1-1,41.5,30.5,20.3,27.7,22.5,14.7,82,72,52,30.35,30.07,6,0,12,0.00
2014-1-2,31.9,23.8,11.1,26.4,19.7,5.6,89,84,78,30.20,29.80,24,3,24,0.27
2014-1-3,15.2,7.5,0.1,5.9,-0.7,-5.9,80,69,53,30.55,30.20,18,1,18,0.00
2014-1-4,36.5,22.4,7.2,16.2,9.6,0.1,76,59,39,30.38,30.10,14,1,27,0.00
2014-1-5,45.8,39.1,31.5,43.3,29.5,14.8,92,69,49,30.11,29.39,21,1,22,0.20
2014-1-6,36.3,4.9,-8.9,33.1,-2.2,-19.0,91,72,58,30.42,29.51,28,7,31,0.03
2014-1-7,9.9,-0.2,-8.4,0.0,-9.7,-18.2,72,64,55,30.56,30.42,29,4,29,0.00
2014-1-8,26.3,18.0,8.3,16.9,7.8,-0.2,71,64,56,30.54,30.45,12,1,12,0.00
2014-1-9,35.9,28.7,21.3,28.6,21.4,14.9,91,74,58,30.59,30.35,11,0,11,0.03
2014-1-10,49.4,39.2,30.9,45.5,37.1,28.6,98,92,87,30.35,29.81,7,0,7,0.00
2014-1-11,54.4,47.1,35.6,51.9,43.0,28.5,100,86,72,29.81,29.43,28,3,28,0.77
2014-1-12,43.1,36.4,32.9,31.6,29.2,26.5,81,75,62,30.08,29.78,20,2,20,0.00
2014-1-13,50.5,43.5,36.3,47.1,34.4,29.1,100,71,52,29.96,29.72,14,2,16,0.26
2014-1-14,46.8,41.2,35.0,46.1,34.0,27.4,100,77,47,29.88,29.72,15,2,27,0.04
2014-1-15,35.3,28.5,23.5,31.0,18.1,14.0,84,65,56,30.10,29.87,24,2,24,0.01
2014-1-16,31.5,26.6,20.5,26.7,17.4,12.3,87,69,46,30.07,29.83,26,3,26,0.00
2014-1-17,35.9,27.4,13.5,32.4,22.3,4.6,91,81,66,30.09,29.77,27,2,27,0.07
2014-1-18,22.2,16.6,10.5,17.5,9.5,2.8,88,74,63,30.12,29.85,14,1,14,0.02
2014-1-19,34.4,27.9,20.5,23.5,20.5,17.5,88,74,57,29.97,29.75,30,4,30,0.01
2014-1-20,40.8,35.0,28.2,30.5,25.9,23.5,86,70,60,29.96,29.69,29,5,29,0.00
2014-1-21,28.8,17.2,2.6,25.0,12.0,-3.8,90,80,69,30.22,29.83,24,4,24,0.00
2014-1-22,11.6,6.4,-2.4,6.6,-0.7,-7.6,80,72,57,30.24,30.08,14,1,15,0.00
2014-1-23,13.5,7.3,1.3,9.1,-0.6,-5.9,83,70,58,30.65,30.08,22,4,22,0.00
2014-1-24,21.1,8.3,-1.2,2.6,-3.3,-7.5,76,60,42,30.66,29.90,27,5,27,0.00
2014-1-25,29.1,20.3,10.4,26.2,14.6,1.8,91,79,42,29.92,29.47,35,7,35,0.05
2014-1-26,38.0,18.9,5.4,26.5,11.2,-0.8,83,72,61,29.96,29.59,14,2,22,0.08
2014-1-27,42.3,13.6,-2.8,31.0,1.3,-12.9,75,58,45,30.48,29.56,21,4,29,0.00
2014-1-28,8.3,-2.7,-14.3,-9.4,-14.7,-22.6,69,56,39,30.57,30.42,7,0,7,0.00
2014-1-29,19.9,5.1,-14.3,1.3,-7.3,-21.9,75,57,41,30.43,30.37,19,2,19,0.00
2014-1-30,33.7,18.3,1.1,10.2,0.7,-7.6,71,48,29,30.39,30.00,20,1,20,0.00
2014-1-31,40.2,35.3,32.5,27.1,17.0,7.4,73,48,33,30.19,30.02,17,2,27,0.00
2014-2-1,55.9,43.5,33.7,33.8,27.3,20.2,69,54,38,30.14,29.87,13,0,13,0.00
2014-2-2,47.7,34.8,28.2,40.4,30.6,23.4,91,85,58,30.24,29.92,10,1,13,0.18
2014-2-3,33.5,26.7,18.4,24.2,19.4,12.6,88,74,52,30.41,30.14,13,1,13,0.02
2014-2-4,31.5,24.9,17.8,24.7,18.1,12.1,91,75,61,30.45,29.99,13,1,13,0.23
2014-2-5,32.7,27.7,22.2,32.5,24.5,17.3,100,88,79,30.36,29.68,14,2,14,0.87
2014-2-6,26.6,20.3,12.1,18.9,14.0,6.5,83,76,69,30.48,30.36,6,0,6,0.00
2014-2-7,17.7,8.2,-0.4,7.0,-2.0,-8.4,73,63,48,30.53,30.43,13,0,13,0.00
2014-2-8,24.2,15.8,6.0,17.0,8.1,-1.4,80,71,59,30.44,30.21,5,0,5,0.00
2014-2-9,29.7,23.6,17.0,25.9,18.2,9.4,89,80,71,30.26,30.05,16,1,16,0.07
2014-2-10,24.1,14.4,6.3,10.6,6.1,-0.4,79,70,55,30.45,30.25,8,0,8,0.00
2014-2-11,21.8,8.2,-4.1,7.4,-1.5,-11.8,74,64,51,30.55,30.44,8,0,8,0.00
2014-2-12,34.9,14.7,-4.8,14.9,2.6,-12.4,77,60,40,30.49,30.07,8,0,8,0.00
2014-2-13,38.2,26.9,19.2,16.6,12.3,8.1,65,54,36,30.07,29.63,14,1,14,0.00
2014-2-14,33.7,29.0,23.6,24.9,20.4,13.6,87,71,47,29.79,29.57,13,2,25,0.14
2014-2-15,27.3,20.9,13.6,20.2,13.4,6.5,88,73,52,30.16,29.75,17,2,17,0.03
2014-2-16,28.2,20.3,11.6,21.9,14.1,4.9,83,76,68,30.38,30.03,13,1,13,0.01
2014-2-17,37.5,23.1,8.4,34.4,15.1,2.9,89,73,47,30.41,29.76,31,2,31,0.23
2014-2-18,52.9,40.6,35.9,29.8,26.9,21.0,78,60,29,30.14,29.84,31,4,31,0.00
2014-2-19,48.8,41.3,28.1,41.1,32.1,24.3,90,71,48,30.14,29.72,27,2,27,0.06
2014-2-20,63.1,45.4,26.0,55.0,38.5,23.5,98,78,61,30.13,29.56,26,1,26,0.42
2014-2-21,58.1,43.0,36.2,55.3,30.0,15.1,95,62,33,30.00,29.51,31,5,31,0.21
2014-2-22,58.3,44.6,32.8,30.0,23.2,14.8,73,44,25,30.09,29.94,21,4,21,0.00
2014-2-23,41.6,34.8,25.6,33.5,26.2,14.5,90,72,47,30.17,30.03,16,1,16,0.00
2014-2-24,34.9,27.0,20.6,15.1,12.2,5.9,75,55,32,30.26,30.15,21,3,21,0.00
2014-2-25,27.9,25.0,20.2,18.9,15.1,8.6,84,66,47,30.23,30.08,14,2,14,0.01
2014-2-26,24.1,19.2,13.8,14.9,6.0,0.2,73,56,40,30.20,29.86,18,3,18,0.00
2014-2-27,24.1,17.5,7.2,14.3,3.0,-3.8,80,53,33,30.25,29.77,31,6,31,0.00
2014-2-28,32.4,18.0,1.7,7.6,-0.6,-4.4,77,47,23,30.38,30.17,11,0,11,0.00
2014-3-1,48.0,36.8,22.5,32.5,21.0,4.3,70,53,40,30.21,30.12,21,2,21,0.00
2014-3-2,40.8,25.4,14.6,31.2,19.5,8.1,88,78,63,30.28,30.12,17,2,17,0.25
2014-3-3,21.0,14.2,6.5,7.9,1.2,-2.5,75,56,40,30.48,30.27,21,2,21,0.01
2014-3-4,36.6,20.2,6.0,13.7,4.8,-2.6,69,53,27,30.44,30.22,8,0,8,0.00
2014-3-5,36.9,25.8,16.9,18.8,13.0,8.9,73,59,37,30.42,30.24,12,1,14,0.00
2014-3-6,47.4,31.2,18.6,25.4,16.9,8.8,69,56,38,30.41,30.15,8,1,12,0.00
2014-3-7,59.9,40.5,25.7,36.0,26.7,17.7,85,59,37,30.14,29.95,10,0,10,0.00
2014-3-8,55.1,40.9,29.3,38.8,32.4,25.9,90,73,49,30.14,29.96,14,1,14,0.00
2014-3-9,45.8,36.5,29.0,27.5,23.9,20.0,81,61,38,30.29,30.02,15,1,15,0.00
2014-3-10,63.4,47.2,38.5,39.5,31.7,24.5,63,55,40,30.02,29.70,25,5,25,0.00
2014-3-11,69.4,57.2,49.6,46.1,41.5,37.3,76,56,39,29.74,29.59,18,2,18,0.00
2014-3-12,51.7,38.3,19.5,43.5,32.6,10.9,94,80,67,29.97,29.22,18,4,30,0.49
2014-3-13,32.9,23.6,11.9,17.0,8.5,0.1,72,53,39,30.25,29.97,18,3,18,0.00
2014-3-14,62.4,45.8,30.3,31.9,23.3,12.8,57,42,27,30.14,29.76,38,7,38,0.00
2014-3-15,56.0,46.7,36.3,42.0,31.2,24.2,81,57,32,30.15,29.78,26,3,26,0.02
2014-3-16,36.3,29.2,25.8,27.5,15.6,5.8,76,58,36,30.26,30.06,21,2,21,0.00
2014-3-17,42.9,31.0,22.9,26.1,16.9,9.2,68,56,47,30.06,29.88,10,1,12,0.00
2014-3-18,58.1,43.3,28.1,38.6,30.5,21.3,77,61,45,30.02,29.90,16,1,16,0.00
2014-3-19,53.3,47.6,41.3,47.5,40.5,32.9,90,76,68,29.96,29.75,31,5,31,0.13
2014-3-20,47.3,40.3,34.9,34.9,29.3,23.9,81,65,48,30.10,29.96,24,4,24,0.00
2014-3-21,67.8,49.7,35.0,37.6,31.0,25.4,81,54,23,30.09,29.81,24,2,24,0.00
2014-3-22,59.3,50.2,38.0,37.8,31.0,24.3,72,50,27,30.18,29.74,25,4,25,0.00
2014-3-23,37.8,32.0,23.2,26.7,17.7,7.2,74,56,33,30.37,30.16,20,4,20,0.00
2014-3-24,39.1,27.3,16.7,14.3,10.0,4.3,72,50,26,30.38,30.15,20,1,20,0.00
2014-3-25,40.8,30.5,24.4,24.7,16.1,9.1,84,55,38,30.17,29.94,25,2,25,0.00
2014-3-26,37.3,26.2,15.6,12.9,8.4,4.9,66,48,29,30.42,30.17,19,2,19,0.00
2014-3-27,58.3,39.9,22.5,22.6,16.5,11.2,67,41,23,30.33,29.83,21,2,21,0.00
2014-3-28,61.2,53.5,40.1,50.2,41.4,21.5,82,66,25,30.12,29.77,28,6,28,0.10
2014-3-29,40.3,36.7,32.1,35.8,33.6,30.5,100,89,80,30.13,29.84,21,4,21,0.84
2014-3-30,49.2,37.0,29.7,32.2,28.4,24.8,100,74,40,30.19,30.01,22,5,22,0.02
2014-3-31,64.7,46.4,28.4,34.9,27.5,21.7,84,53,20,30.27,30.05,4,0,8,0.00
2014-4-1,76.1,60.2,45.2,41.3,30.8,22.9,72,36,15,30.04,29.87,36,4,36,0.01
2014-4-2,59.5,50.1,43.6,49.8,42.8,28.9,92,78,32,30.17,30.00,12,0,12,0.29
2014-4-3,55.1,49.5,45.1,55.1,46.7,38.7,100,90,75,30.08,29.73,12,1,12,0.56
2014-4-4,67.4,55.0,41.3,61.7,50.4,30.3,100,86,57,29.91,29.53,43,5,43,0.29
2014-4-5,49.9,40.5,31.2,31.8,28.3,25.1,82,62,43,30.23,29.91,24,3,24,0.00
2014-4-6,60.2,43.6,25.1,34.3,27.4,22.3,92,58,26,30.24,29.96,13,1,13,0.00
2014-4-7,56.5,50.7,45.2,56.5,42.3,26.5,100,75,44,29.96,29.35,24,1,29,1.14
2014-4-8,62.0,51.8,42.3,47.2,39.6,33.3,91,66,34,29.78,29.40,25,4,36,0.02
2014-4-9,59.8,50.3,38.6,41.1,34.8,28.3,79,57,34,30.06,29.77,17,2,17,0.00
2014-4-10,74.4,56.1,35.0,39.6,33.9,29.8,83,49,23,30.09,29.81,30,5,30,0.00
2014-4-11,69.9,59.8,45.8,53.6,47.9,39.2,90,67,35,30.11,29.90,26,2,26,0.12
2014-4-12,77.9,59.2,37.9,50.7,43.3,35.5,93,61,30,30.20,29.89,20,1,20,0.00
2014-4-13,80.5,68.7,54.2,56.0,50.2,45.7,76,54,30,29.95,29.73,30,4,30,0.00
2014-4-14,74.7,67.2,51.3,58.8,53.4,45.4,89,64,37,29.73,29.63,27,5,27,0.14
2014-4-15,50.7,34.7,29.0,46.8,26.9,14.7,91,74,50,30.29,29.67,19,4,19,0.35
2014-4-16,48.9,36.5,23.2,24.3,19.6,15.7,77,52,32,30.49,30.28,13,1,13,0.00
2014-4-17,68.9,51.3,35.3,35.6,27.3,19.1,57,41,23,30.41,30.27,16,1,16,0.00
2014-4-18,70.9,54.9,38.3,40.4,35.2,30.3,76,51,27,30.30,30.20,13,0,13,0.00
2014-4-19,67.1,56.1,44.3,44.8,37.0,28.0,82,51,28,30.34,30.21,14,2,14,0.00
2014-4-20,77.6,57.8,37.5,43.6,33.9,26.5,79,45,16,30.31,30.10,11,0,11,0.00
2014-4-21,79.6,60.8,40.6,45.0,38.6,30.9,83,48,25,30.10,29.79,19,1,19,0.00
2014-4-22,70.8,61.6,48.8,57.4,45.6,28.9,89,59,24,29.89,29.70,25,3,25,0.04
2014-4-23,58.0,47.4,38.3,39.0,32.8,28.5,69,57,40,30.14,29.89,14,3,14,0.00
2014-4-24,63.2,50.7,37.0,32.0,23.6,14.1,75,39,18,30.19,29.84,11,0,11,0.00
2014-4-25,57.8,52.9,43.5,55.8,42.4,22.6,95,71,31,29.92,29.64,20,1,20,0.41
2014-4-26,74.7,57.3,39.6,51.0,43.4,37.1,93,63,35,30.00,29.85,20,2,20,0.01
2014-4-27,69.9,53.1,38.9,43.2,37.3,34.2,84,58,29,30.11,29.93,12,1,12,0.00
2014-4-28,59.0,54.2,48.2,59.0,45.6,34.2,100,75,45,29.93,29.73,10,0,10,0.49
2014-4-29,78.5,65.7,56.3,62.0,57.1,44.2,100,78,32,29.91,29.58,24,2,24,1.28
2014-4-30,60.5,56.5,53.3,58.7,54.6,51.3,97,93,88,29.91,29.73,6,0,16,0.75
2014-5-1,58.3,53.5,47.6,53.4,41.5,35.5,91,65,44,29.90,29.83,17,3,25,0.00
2014-5-2,57.2,50.9,44.2,43.7,40.5,36.6,83,68,57,29.90,29.85,11,2,19,0.00
2014-5-3,67.3,56.2,44.1,45.5,40.1,32.7,88,57,29,29.90,29.78,29,3,29,0.00
2014-5-4,68.3,59.1,49.6,44.0,37.3,29.6,57,45,35,30.06,29.85,28,3,28,0.00
2014-5-5,58.4,48.9,41.9,41.6,36.8,33.0,81,64,42,30.09,29.90,10,0,10,0.04
2014-5-6,73.3,56.7,41.8,43.9,39.4,36.5,83,56,28,30.02,29.92,9,0,11,0.00
2014-5-7,85.7,67.6,50.1,56.8,47.0,39.7,75,50,27,30.03,29.91,19,1,22,0.00
2014-5-8,86.3,72.3,57.0,62.8,56.0,51.2,83,59,37,30.08,29.95,22,2,24,0.00
2014-5-9,79.8,68.2,58.1,64.4,57.9,52.7,91,71,49,30.00,29.84,31,2,31,0.22
2014-5-10,70.3,64.0,55.6,62.0,58.3,53.3,93,82,69,30.03,29.88,21,2,21,0.39
2014-5-11,82.2,66.3,55.7,64.5,59.7,53.9,100,82,48,30.14,30.00,6,0,16,0.08
2014-5-12,85.9,72.8,62.6,69.2,65.3,60.2,100,79,54,30.08,29.98,19,1,19,1.11
2014-5-13,88.2,77.3,66.6,68.9,63.6,56.0,89,65,42,30.04,29.96,22,2,22,0.00
2014-5-14,82.0,71.1,64.2,68.2,63.8,59.8,94,79,58,30.05,29.86,18,0,18,0.59
2014-5-15,65.5,58.5,46.1,64.3,54.7,39.7,100,87,70,30.05,29.75,12,2,24,0.73
2014-5-16,58.0,48.5,36.5,44.3,39.3,33.8,93,72,46,30.06,29.97,18,0,18,0.14
2014-5-17,56.9,46.3,40.5,46.1,41.9,38.4,93,85,60,30.25,30.04,20,1,20,0.30
2014-5-18,66.6,49.8,34.0,46.8,37.5,32.0,100,68,32,30.32,30.25,10,0,10,0.00
2014-5-19,71.5,55.6,37.2,46.2,38.9,32.3,94,59,27,30.34,30.16,8,0,8,0.00
2014-5-20,76.8,61.9,52.5,62.8,50.7,41.1,87,67,50,30.17,29.95,10,0,11,0.00
2014-5-21,76.8,68.2,59.5,66.8,61.9,57.2,93,81,65,29.97,29.85,15,1,15,0.06
2014-5-22,78.8,69.2,62.0,63.9,57.7,50.5,93,70,42,30.00,29.86,18,2,18,0.02
2014-5-23,71.3,61.7,51.3,51.0,47.9,45.2,85,62,41,30.13,30.00,12,2,16,0.00
2014-5-24,77.9,56.9,44.9,53.7,47.9,42.6,100,75,35,30.22,30.11,6,0,10,0.00
2014-5-25,81.8,66.3,49.8,56.6,50.5,44.6,94,62,29,30.18,30.08,9,0,9,0.00
2014-5-26,85.9,70.5,51.0,64.4,56.4,48.5,100,65,39,30.14,29.96,17,0,17,0.00
2014-5-27,88.4,76.3,69.1,68.4,65.3,62.8,88,70,45,29.98,29.87,17,1,17,0.00
2014-5-28,88.8,74.5,66.1,68.4,63.8,55.0,92,72,33,30.00,29.89,20,1,20,0.04
2014-5-29,84.9,71.7,63.2,67.7,63.8,54.2,99,78,52,30.07,29.96,10,0,10,0.01
2014-5-30,83.2,68.7,55.1,59.9,54.3,48.2,84,62,34,30.15,30.07,11,0,11,0.00
2014-5-31,84.0,68.6,53.3,57.4,53.2,48.6,93,62,32,30.20,30.10,11,0,11,0.00
2014-6-1,85.1,71.3,52.5,66.0,58.6,49.4,92,66,43,30.16,30.02,10,0,14,0.00
2014-6-2,81.1,73.8,69.3,67.0,65.2,62.0,87,75,59,30.12,29.97,19,1,19,0.06
2014-6-3,85.7,74.7,67.6,70.7,66.2,63.6,92,76,49,29.98,29.85,19,2,19,0.22
2014-6-4,74.7,67.2,58.7,67.9,62.7,56.7,95,86,67,29.90,29.63,14,0,14,1.11
2014-6-5,76.1,65.7,56.0,59.2,53.8,49.2,92,68,44,29.94,29.71,14,1,14,0.00
2014-6-6,80.7,65.4,47.7,54.1,49.3,43.0,100,61,30,30.01,29.94,10,0,10,0.00
2014-6-7,82.8,67.9,51.1,58.8,52.8,47.6,95,63,32,30.06,29.86,8,0,8,0.00
2014-6-8,77.4,64.2,56.5,67.2,59.1,53.3,91,84,64,29.94,29.73,21,1,21,0.10
2014-6-9,75.3,64.6,54.2,61.8,57.9,51.6,95,80,58,29.97,29.89,7,0,7,0.01
2014-6-10,75.3,65.2,57.2,65.3,60.8,55.0,100,86,69,29.94,29.84,18,0,18,0.43
2014-6-11,79.9,69.9,63.1,68.0,65.1,62.4,100,86,63,29.85,29.73,17,0,17,0.01
2014-6-12,78.8,70.4,62.7,66.9,63.1,59.1,99,79,56,29.83,29.74,18,1,18,0.00
2014-6-13,76.5,67.8,58.0,65.3,57.7,48.5,94,72,44,29.98,29.77,16,1,16,0.00
2014-6-14,78.6,64.1,46.5,52.6,48.6,43.7,94,60,30,30.13,29.98,10,0,10,0.00
2014-6-15,84.9,67.2,48.8,61.8,54.5,46.6,94,68,30,30.14,30.00,10,0,10,0.00
2014-6-16,86.3,74.6,62.1,73.4,66.2,59.3,92,76,55,30.11,30.03,16,0,16,0.04
2014-6-17,89.7,79.0,66.0,70.3,66.8,64.2,100,69,47,30.08,29.93,25,2,25,0.00
2014-6-18,90.7,80.3,66.9,72.3,68.4,64.6,93,69,48,30.06,29.94,19,1,24,0.47
2014-6-19,82.6,74.9,66.4,70.3,68.0,64.7,100,80,62,30.08,29.96,18,0,18,0.28
2014-6-20,86.5,74.0,68.8,73.0,68.6,65.8,100,84,57,30.04,29.88,11,0,11,0.62
2014-6-21,79.6,71.9,63.7,70.6,66.5,60.3,100,84,61,29.92,29.84,13,1,13,0.00
2014-6-22,87.6,72.1,59.5,68.3,62.8,57.8,100,75,46,29.95,29.86,9,0,9,0.00
2014-6-23,90.1,78.5,68.1,72.5,68.0,61.8,93,72,49,29.94,29.85,16,0,16,0.01
2014-6-24,86.5,76.5,68.3,72.9,68.9,66.0,93,78,58,29.96,29.85,17,1,17,0.06
2014-6-25,85.7,74.8,69.4,73.0,68.7,66.3,100,83,55,29.95,29.83,13,1,13,0.48
2014-6-26,86.5,76.3,66.6,68.1,65.6,61.1,94,72,47,30.02,29.94,8,0,8,0.00
2014-6-27,88.2,76.0,63.5,68.7,65.2,61.1,94,71,47,30.08,30.01,6,0,6,0.00
2014-6-28,87.8,74.2,63.9,72.5,67.7,61.8,100,81,56,30.12,30.06,12,0,12,0.06
2014-6-29,87.0,76.6,69.8,73.2,69.7,67.7,97,80,57,30.11,29.99,19,1,19,0.00
2014-6-30,84.7,76.7,68.1,72.2,69.7,66.3,100,80,62,30.01,29.83,17,0,17,0.00
2014-7-1,91.4,80.2,67.4,75.1,70.8,64.6,93,74,52,29.90,29.72,22,2,22,0.71
2014-7-2,85.9,75.6,66.8,69.6,66.8,62.7,100,77,49,29.92,29.78,16,1,16,0.17
2014-7-3,76.8,69.5,61.0,67.0,60.2,52.8,93,74,48,30.11,29.90,17,1,17,0.05
2014-7-4,79.2,66.0,52.9,59.8,53.2,48.8,94,67,38,30.27,30.11,13,1,13,0.00
2014-7-5,79.9,65.2,48.5,55.5,50.2,42.4,100,63,33,30.32,30.14,10,0,10,0.00
2014-7-6,81.8,67.9,54.2,68.2,59.2,51.3,93,76,49,30.14,29.90,16,0,17,0.14
2014-7-7,84.9,75.5,65.8,70.0,64.3,60.6,92,69,51,29.90,29.76,25,3,28,0.07
2014-7-8,83.6,76.0,70.4,71.3,66.5,60.5,87,73,52,29.82,29.68,26,3,26,0.11
2014-7-9,84.7,74.8,65.5,66.0,61.2,55.0,88,65,37,29.98,29.82,14,0,14,0.00
2014-7-10,85.5,72.3,60.1,64.8,59.6,53.7,100,68,37,30.12,29.98,8,0,9,0.00
2014-7-11,87.6,72.9,58.1,64.6,59.0,54.5,100,65,36,30.19,30.11,7,0,7,0.00
2014-7-12,87.6,74.8,61.5,66.1,62.4,57.4,100,68,41,30.16,30.00,17,0,17,0.00
2014-7-13,87.4,76.3,70.4,74.2,68.8,64.7,100,79,61,30.00,29.84,14,2,19,1.03
2014-7-14,82.4,73.9,67.6,72.0,69.6,65.2,100,88,62,29.90,29.77,12,1,13,0.36
2014-7-15,77.2,69.4,58.4,65.7,57.3,50.4,93,68,40,29.90,29.75,17,1,17,0.13
2014-7-16,73.7,62.9,51.3,57.0,53.1,49.1,94,72,51,30.01,29.90,11,0,11,0.00
2014-7-17,79.0,64.7,49.6,58.0,52.2,45.7,95,68,32,30.13,30.01,7,0,7,0.00
2014-7-18,77.6,65.2,52.0,63.4,57.3,50.0,95,78,49,30.20,30.12,8,0,8,0.03
2014-7-19,69.1,66.0,63.4,65.3,63.5,61.7,95,92,84,30.12,30.03,5,0,5,0.14
2014-7-20,81.1,72.0,65.6,69.6,66.3,63.6,96,83,64,30.07,30.00,7,0,7,0.09
2014-7-21,88.4,75.1,63.7,71.2,67.3,62.0,100,79,52,30.11,30.02,3,0,3,0.00
2014-7-22,91.2,78.3,65.3,73.2,68.7,63.5,100,75,47,30.10,29.97,11,0,11,0.00
2014-7-23,84.9,75.3,63.7,70.3,67.6,60.2,93,78,54,30.00,29.90,16,1,16,0.09
2014-7-24,80.1,68.2,59.2,61.3,57.5,53.5,90,70,45,30.04,29.95,14,1,14,0.01
2014-7-25,80.7,67.2,51.0,61.8,55.4,48.8,94,69,43,30.11,29.95,3,0,12,0.00
2014-7-26,84.5,72.8,61.3,68.2,63.3,58.3,92,74,48,29.98,29.81,18,1,18,0.27
2014-7-27,83.4,72.7,67.1,70.4,67.7,63.4,94,85,60,29.82,29.64,20,1,20,0.17
2014-7-28,74.9,66.6,59.6,63.9,59.0,55.3,91,77,55,29.93,29.68,14,1,14,0.00
2014-7-29,73.2,63.7,55.7,57.0,53.8,49.7,89,72,46,30.03,29.93,10,0,10,0.00
2014-7-30,78.1,64.8,54.4,63.7,57.5,51.6,93,78,54,30.04,29.99,17,1,19,0.08
2014-7-31,82.8,70.3,58.9,63.9,60.6,56.6,93,74,47,30.07,30.02,13,0,13,0.00
2014-8-1,84.5,75.3,59.5,66.2,61.9,57.1,100,66,42,30.10,30.02,6,0,7,0.00
2014-8-2,74.6,67.5,61.8,67.7,63.1,59.5,93,86,72,30.12,30.02,11,0,11,0.22
2014-8-3,84.3,69.9,57.3,65.8,61.1,55.6,100,76,48,30.12,30.05,3,0,9,0.00
2014-8-4,87.8,72.3,57.5,66.6,59.7,51.8,100,69,31,30.11,30.03,8,0,8,0.00
2014-8-5,87.4,73.0,58.9,66.4,62.0,56.9,95,72,40,30.06,29.96,10,0,10,0.00
2014-8-6,83.4,72.0,63.7,69.6,64.7,57.5,93,79,57,30.01,29.92,11,0,11,0.00
2014-8-7,82.6,68.6,54.7,61.7,56.2,52.0,94,68,38,30.09,30.01,8,0,8,0.00
2014-8-8,84.0,69.8,57.3,62.4,57.8,54.7,92,69,39,30.10,30.01,13,0,13,0.00
2014-8-9,87.0,72.2,58.7,68.1,62.3,55.0,89,72,51,30.05,29.97,10,0,10,0.00
2014-8-10,86.7,74.7,62.3,69.2,65.0,60.0,100,74,50,30.03,29.93,8,0,8,0.00
2014-8-11,83.8,73.7,68.1,72.9,68.8,65.0,100,85,65,29.96,29.75,17,0,17,0.35
2014-8-12,81.4,72.2,63.7,71.8,65.9,59.0,98,82,50,29.86,29.72,20,2,24,0.38
2014-8-13,79.4,67.2,59.3,59.6,56.7,51.1,92,72,41,29.99,29.86,14,1,14,0.01
2014-8-14,78.1,66.5,54.4,57.7,54.5,50.0,93,68,40,30.02,29.93,16,1,16,0.00
2014-8-15,79.2,62.4,46.2,56.1,48.7,41.6,100,66,27,30.05,29.98,13,0,13,0.00
2014-8-16,82.2,63.6,45.7,65.5,54.3,43.6,100,75,33,30.02,29.93,16,1,16,0.02
2014-8-17,84.1,74.2,66.4,67.1,65.0,60.9,90,75,48,29.97,29.90,11,0,11,0.00
2014-8-18,86.3,74.1,64.3,70.1,66.7,61.9,96,79,55,29.90,29.75,11,0,11,0.00
2014-8-19,88.6,75.2,62.0,71.3,66.6,60.1,100,77,51,29.84,29.76,14,0,14,0.00
2014-8-20,87.8,76.7,67.6,69.9,67.2,64.5,93,74,49,29.97,29.77,19,1,19,0.08
2014-8-21,73.9,70.9,66.9,70.9,67.6,64.0,94,90,78,30.08,29.96,13,0,13,0.59
2014-8-22,84.7,74.8,66.8,73.0,70.6,67.0,100,88,65,30.00,29.89,13,0,0,0.24
2014-8-23,88.4,75.0,66.8,72.0,69.3,65.0,100,84,54,30.00,29.91,0,0,0,0.00
2014-8-24,87.4,75.1,65.8,71.0,67.1,64.0,95,78,52,30.04,29.95,5,0,0,0.00
2014-8-25,85.5,74.7,66.9,69.0,65.8,64.0,93,76,52,30.09,30.01,3,0,0,0.00
2014-8-26,88.0,75.1,62.4,70.0,65.9,61.0,94,75,51,30.14,30.03,1,0,0,0.00
2014-8-27,91.4,75.9,64.8,73.4,68.2,62.7,94,79,50,30.07,29.96,7,0,13,0.19
2014-8-28,81.1,69.7,60.5,65.1,60.5,57.0,94,74,51,30.10,30.02,10,0,10,0.01
2014-8-29,84.7,70.1,55.7,64.6,58.4,52.5,90,69,41,30.12,30.01,7,0,7,0.00
2014-8-30,91.2,77.9,66.0,70.4,65.5,61.0,90,68,41,30.05,29.95,18,1,18,0.00
2014-8-31,77.4,72.6,69.6,73.0,69.8,67.0,100,91,79,30.03,29.96,13,0,13,0.46
2014-9-1,84.7,75.1,68.6,74.6,70.5,67.0,100,86,66,29.98,29.86,18,1,18,0.16
2014-9-2,82.4,75.0,65.6,72.5,68.5,63.4,94,81,60,29.96,29.87,16,1,19,0.67
2014-9-3,86.5,72.5,62.3,70.2,63.6,56.3,100,77,40,30.06,29.96,5,0,5,0.00
2014-9-4,90.5,74.3,59.3,70.5,64.4,57.6,100,75,43,30.10,30.02,10,0,10,0.00
2014-9-5,90.3,78.2,67.4,73.4,69.4,65.3,95,76,52,30.12,29.95,12,0,14,0.00
2014-9-6,80.9,71.7,59.9,69.4,65.5,57.2,92,81,64,30.10,29.94,12,1,13,0.01
2014-9-7,77.9,64.0,53.1,60.4,54.3,47.3,100,74,40,30.20,30.10,8,0,12,0.01
2014-9-8,77.4,64.1,52.8,64.1,57.8,50.8,94,81,60,30.14,30.03,7,0,7,0.01
2014-9-9,85.7,71.2,62.1,67.5,61.1,52.3,92,74,32,30.09,29.97,9,0,9,0.00
2014-9-10,83.6,73.5,61.3,71.0,65.9,58.6,95,78,63,29.97,29.75,19,2,27,0.00
2014-9-11,76.8,67.8,55.6,70.0,61.2,51.0,94,81,64,30.13,29.73,21,2,26,0.41
2014-9-12,64.2,59.2,53.6,54.0,52.3,50.0,91,78,65,30.22,30.13,6,0,0,0.00
2014-9-13,66.9,58.2,48.2,53.6,49.1,43.5,89,73,45,30.32,30.08,14,1,15,0.00
2014-9-14,70.6,54.1,41.5,48.9,45.1,39.6,95,75,41,30.36,30.21,6,0,6,0.00
2014-9-15,72.1,57.9,42.2,54.0,47.9,40.0,100,72,43,30.24,29.99,12,0,12,3.60
2014-9-16,68.1,58.2,48.6,55.5,51.7,45.8,91,80,54,30.16,30.05,8,0,10,0.02
2014-9-17,71.8,57.3,45.7,54.7,49.0,43.5,100,76,48,30.10,29.96,10,0,10,0.00
2014-9-18,73.7,58.7,45.7,53.4,47.9,43.8,100,71,37,30.14,29.99,13,0,14,0.00
2014-9-19,77.2,60.7,45.1,55.2,50.2,43.0,100,72,40,30.21,30.07,10,0,10,0.00
2014-9-20,82.6,69.6,57.0,65.2,60.6,53.8,93,75,51,30.11,29.89,19,1,21,0.00
2014-9-21,80.9,72.3,58.4,66.2,58.2,38.0,82,65,23,29.95,29.70,19,3,26,0.00
2014-9-22,66.3,55.1,43.2,50.6,44.3,39.8,88,69,41,30.29,29.95,17,2,17,0.00
2014-9-23,75.3,54.2,37.3,48.2,41.9,35.4,100,68,31,30.37,30.29,8,0,8,0.00
2014-9-24,77.6,58.1,42.9,50.9,44.9,37.7,95,67,27,30.40,30.31,7,0,8,0.00
2014-9-25,81.8,61.1,44.5,56.7,48.9,42.1,100,69,29,30.34,30.21,7,0,7,0.00
2014-9-26,83.2,62.4,47.4,60.5,53.6,45.5,100,76,42,30.27,30.17,10,0,10,0.00
2014-9-27,81.8,64.0,49.1,57.8,51.9,47.5,100,70,32,30.25,30.14,8,0,8,0.00
2014-9-28,84.1,65.2,49.4,60.9,53.9,47.5,100,71,36,30.17,30.01,9,0,9,0.00
2014-9-29,84.7,66.8,53.8,62.9,53.7,46.2,94,68,27,30.01,29.88,11,0,11,0.00
2014-9-30,69.9,56.9,47.6,61.7,52.4,45.4,100,86,59,29.97,29.87,13,0,13,0.34
2014-10-1,73.0,57.8,47.9,57.0,51.4,45.5,100,82,48,30.04,29.96,6,0,7,0.01
2014-10-2,85.3,64.4,45.7,61.5,52.4,43.8,100,70,35,30.08,29.88,12,0,14,0.00
2014-10-3,73.3,64.5,54.5,64.7,57.3,51.9,93,78,60,29.87,29.61,25,2,25,0.20
2014-10-4,54.8,45.7,41.3,52.5,36.3,26.8,92,71,43,29.87,29.71,31,3,31,0.08
2014-10-5,58.3,50.2,42.8,41.5,34.3,29.5,72,56,35,29.90,29.79,25,3,25,0.00
2014-10-6,58.0,53.5,47.3,55.0,48.3,38.7,93,83,62,29.85,29.73,25,1,25,0.30
2014-10-7,58.9,53.3,47.0,56.7,50.9,45.1,100,92,83,29.89,29.73,19,1,25,0.14
2014-10-8,68.3,56.3,42.9,52.0,45.3,38.4,100,71,37,30.08,29.86,21,1,21,0.00
2014-10-9,55.0,47.3,38.6,50.7,44.1,36.2,100,89,69,30.17,30.02,7,0,7,0.09
2014-10-10,60.2,53.4,48.9,54.1,49.6,46.4,100,87,68,30.10,30.04,7,0,7,0.18
2014-10-11,62.0,52.2,45.1,48.0,42.8,39.3,93,72,45,30.19,30.02,16,1,16,0.02
2014-10-12,62.7,51.4,37.0,53.2,44.5,33.8,90,78,51,30.19,30.04,10,0,10,0.00
2014-10-13,76.5,65.1,55.0,63.9,59.1,51.8,93,82,64,30.06,29.88,17,0,17,0.00
2014-10-14,77.2,67.0,58.4,64.3,59.3,56.5,98,78,55,29.87,29.59,21,1,21,0.84
2014-10-15,66.4,57.9,52.8,58.7,54.1,49.3,100,89,57,29.81,29.72,13,0,13,0.01
2014-10-16,62.7,55.9,53.2,54.5,52.2,50.6,95,88,69,29.80,29.71,11,0,11,0.17
2014-10-17,72.0,61.0,51.6,54.1,49.7,45.7,89,68,46,29.79,29.60,25,4,25,0.00
2014-10-18,57.8,51.0,45.4,48.0,43.4,39.9,90,76,60,30.09,29.73,18,2,18,0.06
2014-10-19,56.7,46.0,34.3,42.1,37.1,31.1,91,73,46,30.23,30.08,13,1,13,0.00
2014-10-20,62.1,48.7,36.2,50.0,43.2,33.3,93,83,52,30.08,29.86,14,1,18,0.33
2014-10-21,50.7,48.4,44.9,48.5,45.1,40.1,95,88,77,30.14,29.87,17,2,17,0.05
2014-10-22,50.1,47.0,44.3,44.2,41.9,40.1,89,83,73,30.26,30.13,14,2,14,0.00
2014-10-23,61.3,47.1,38.2,45.4,40.9,35.5,95,81,53,30.26,30.12,10,0,10,0.00
2014-10-24,66.1,47.8,34.9,46.1,39.0,33.1,94,75,41,30.15,30.02,13,0,13,0.00
2014-10-25,71.6,55.3,39.9,56.8,47.4,37.5,93,76,57,30.03,29.82,22,2,22,0.00
2014-10-26,67.3,52.9,38.8,45.8,34.9,26.8,80,54,24,29.99,29.85,14,1,14,0.00
2014-10-27,78.6,58.7,36.6,60.8,45.8,31.4,86,64,39,30.03,29.84,24,1,24,0.00
2014-10-28,74.0,67.1,53.6,61.8,55.4,47.3,83,67,53,29.99,29.82,28,5,29,0.02
2014-10-29,60.4,51.3,40.2,47.3,38.9,32.0,79,64,42,30.10,29.98,22,2,22,0.00
2014-10-30,51.0,43.5,31.5,38.9,34.3,28.6,92,71,53,30.17,30.05,6,0,6,0.00
2014-10-31,46.5,42.0,39.2,42.0,38.4,34.8,92,87,77,30.05,29.85,14,1,14,0.17
2014-11-1,42.8,39.6,36.6,37.5,32.6,25.4,92,77,59,30.30,29.92,21,6,22,0.04
2014-11-2,48.8,35.8,25.8,29.7,25.0,21.9,85,66,39,30.46,30.30,18,2,18,0.00
2014-11-3,63.2,45.6,24.4,30.2,23.2,19.1,90,49,20,30.40,30.19,20,3,20,0.00
2014-11-4,69.4,57.6,43.5,51.6,36.5,22.5,92,48,28,30.19,30.03,25,5,26,0.06
2014-11-5,56.3,50.4,44.3,51.3,44.4,34.4,92,81,46,30.23,30.02,12,0,13,0.06
2014-11-6,52.3,48.9,41.6,51.7,45.6,39.0,100,89,74,30.02,29.76,28,3,28,0.15
2014-11-7,43.9,37.4,26.4,41.6,29.5,23.3,93,74,49,30.17,29.93,17,3,19,0.01
2014-11-8,55.6,41.1,26.3,37.7,32.0,23.2,90,71,49,30.07,29.81,20,2,27,0.00
2014-11-9,54.1,45.9,35.8,37.6,33.3,29.6,87,63,40,30.04,29.93,17,2,18,0.00
2014-11-10,65.6,50.5,34.4,37.9,33.4,29.5,86,55,27,30.04,29.84,18,1,18,0.00
2014-11-11,71.6,57.6,41.8,55.7,42.4,31.3,91,58,43,29.95,29.75,19,3,24,0.06
2014-11-12,41.5,37.7,35.8,38.5,29.0,24.8,91,71,62,30.26,29.95,15,1,15,0.01
2014-11-13,35.5,30.4,26.6,25.9,21.9,18.4,78,70,61,30.29,30.22,10,2,17,0.00
2014-11-14,32.9,28.2,22.9,20.2,18.0,14.2,77,65,53,30.41,30.28,11,1,13,0.00
2014-11-15,37.9,29.9,19.5,20.8,15.8,12.0,76,56,38,30.48,30.26,13,1,13,0.00
2014-11-16,38.6,34.4,29.8,32.5,27.5,18.4,87,76,56,30.27,29.90,10,0,10,0.06
2014-11-17,35.3,28.0,15.7,32.1,23.7,8.2,90,84,72,30.07,29.72,17,0,19,0.44
2014-11-18,20.2,15.7,11.2,10.6,7.3,4.2,79,69,58,30.34,30.07,25,5,25,0.00
2014-11-19,38.9,26.7,11.7,27.5,16.5,5.9,80,66,50,30.33,29.91,24,4,25,0.00
2014-11-20,30.9,26.2,22.9,21.2,15.1,10.8,71,63,52,30.27,30.03,26,4,26,0.00
2014-11-21,31.2,22.2,16.1,12.8,10.0,7.1,72,60,39,30.57,30.27,12,0,12,0.00
2014-11-22,52.3,38.1,17.3,36.7,26.0,9.1,88,63,44,30.47,30.09,18,1,18,0.03
2014-11-23,62.6,53.7,45.4,53.1,39.2,30.2,93,60,43,30.09,29.33,17,2,17,0.22
2014-11-24,64.8,54.6,40.8,55.1,44.9,30.9,92,70,52,29.89,29.28,44,9,44,0.03
2014-11-25,44.2,36.9,29.1,32.2,28.2,23.8,85,71,58,30.21,29.89,19,2,19,0.00
2014-11-26,41.5,33.4,28.7,30.7,27.1,25.1,87,78,61,30.22,30.03,10,1,10,0.00
2014-11-27,32.7,30.8,28.2,27.6,25.2,21.2,87,80,65,30.37,30.05,14,2,14,0.01
2014-11-28,31.9,28.2,20.8,22.2,18.4,15.6,82,67,54,30.44,30.17,13,1,13,0.00
2014-11-29,54.2,40.7,29.0,43.1,28.2,19.1,70,61,46,30.17,29.91,16,1,19,0.00
2014-11-30,64.5,60.0,53.2,53.3,49.8,43.1,74,69,63,30.03,29.90,29,8,29,0.00
2014-12-1,62.0,40.7,29.0,54.3,35.5,22.2,92,82,66,30.56,30.03,20,3,20,0.26
2014-12-2,37.5,31.9,28.1,35.4,27.1,20.9,92,82,73,30.54,30.17,13,1,13,0.01
2014-12-3,40.5,36.0,31.2,35.8,31.4,27.1,92,83,67,30.41,30.14,20,2,20,0.00
2014-12-4,36.2,32.4,27.0,31.0,28.1,22.8,88,84,80,30.49,30.34,6,0,6,0.00
2014-12-5,46.0,39.9,35.0,43.6,37.1,30.7,94,90,83,30.34,30.10,5,0,5,0.44
2014-12-6,45.1,41.0,34.6,43.5,37.3,26.3,95,87,66,30.54,30.02,21,4,21,1.01
2014-12-7,42.2,34.6,27.9,28.3,25.3,22.5,82,69,51,30.65,30.46,12,1,12,0.00
2014-12-8,44.5,38.7,33.1,28.6,23.0,18.1,67,54,39,30.45,30.13,16,1,17,0.00
2014-12-9,42.5,39.3,36.6,36.7,33.1,28.3,87,78,67,30.18,30.07,18,2,18,0.01
2014-12-10,36.8,32.4,29.0,32.1,26.3,20.5,84,78,69,30.24,30.14,19,5,19,0.00
2014-12-11,38.6,30.2,23.5,24.0,19.7,14.0,85,67,38,30.22,30.13,18,3,18,0.00
2014-12-12,41.8,31.4,23.9,28.4,24.4,20.6,87,76,57,30.33,30.21,11,2,16,0.00
2014-12-13,42.5,36.6,30.1,36.7,32.6,27.2,90,86,77,30.30,30.16,10,1,12,0.00
2014-12-14,45.8,43.5,0.0,39.3,37.0,0.0,81,77,76,30.18,30.12,14,2,14,0.00
2014-12-15,53.9,46.6,42.2,41.5,39.0,37.2,85,75,61,30.14,29.82,8,0,8,0.02
2014-12-16,49.5,44.6,38.0,46.6,40.9,34.4,92,87,81,30.05,29.74,25,4,25,0.25
2014-12-17,37.9,31.8,27.0,34.4,26.3,19.7,90,80,73,30.27,30.05,20,4,20,0.01
2014-12-18,29.0,28.1,26.9,22.7,20.3,18.4,78,72,69,30.32,30.24,11,0,11,0.00
2014-12-19,31.2,29.6,28.1,23.6,22.5,21.2,78,75,71,30.35,30.25,7,0,7,0.00
2014-12-20,33.4,31.2,29.0,25.5,23.8,22.2,78,74,70,30.33,30.27,4,0,4,0.00
2014-12-21,37.3,31.5,26.1,26.1,24.3,21.1,81,75,60,30.37,30.19,7,0,7,0.00
2014-12-22,48.3,37.9,24.2,39.4,30.4,19.7,85,75,64,30.19,29.81,8,1,8,0.00
2014-12-23,56.0,50.2,43.5,53.7,46.9,39.0,93,88,76,29.87,29.73,12,1,12,0.44
2014-12-24,59.2,52.3,39.2,54.2,49.2,34.1,94,89,81,29.73,29.30,35,3,35,0.22
2014-12-25,41.1,38.7,34.9,34.4,31.9,27.9,85,77,67,30.25,29.70,24,4,24,0.00
2014-12-26,50.7,39.2,28.4,37.3,31.4,24.0,87,74,56,30.30,30.20,16,1,16,0.00
2014-12-27,54.8,45.7,36.2,46.0,36.2,30.4,93,71,47,30.24,30.03,17,1,17,0.22
2014-12-28,47.7,38.9,33.5,45.7,34.5,28.0,93,84,72,30.22,29.97,19,1,19,0.11
2014-12-29,36.9,31.0,25.1,28.1,24.1,17.2,85,76,63,30.41,30.22,10,1,10,0.00
2014-12-30,33.8,27.2,23.3,20.0,16.4,11.4,74,64,50,30.57,30.40,12,1,12,0.00
2014-12-31,27.6,21.9,14.8,15.8,8.0,3.3,75,56,37,30.58,30.30,20,3,20,0.00
2015-1-1,37.9,28.4,20.5,20.4,11.9,4.3,62,50,36,30.30,30.09,26,6,34,0.00
2015-1-2,39.2,30.3,26.0,24.3,21.7,20.4,84,71,53,30.41,30.23,7,1,13,0.00